Location: Unspecified
(0.0000°N, 0.0000°E)
Time: 09:36:17
(UTC+00:00)

Vanguard 2 Rocket - Pass Details

Date: 13 October 2022
Orbit: 555 x 3321 km, 32.9° (Epoch: 06 December)

Event Time Altitude Azimuth Distance (km) Brightness Sun altitude
Rises 16:40:26 0° 244° (WSW) 5,736 12.4 16.3°
Reaches altitude 10° 16:43:43 10° 246° (WSW) 5,033 12.6 15.5°
Maximum altitude 16:59:42 66° 325° (NW) 3,333 10.1 11.5°
Drops below altitude 10° 17:20:01 10° 45° (NE) 6,148 10.7 6.5°
Sets 17:24:35 0° 48° (NE) 7,007 10.9 5.4°
